This is the latest recevied weather packets stored in our database for station/object KF7ROW. If no packets are shown the sender has not sent any weather packets the latest 10 day(s).
| Time | Temp. | Humidity | Pressure | Rain* | Wind** | Luminosity | Snow |
|---|---|---|---|---|---|---|---|
| 1777309457 | 11.11° C | 81% | 1022.8 hPa | 0 mm | - | 150 W/m² | - |
| 1777309154 | 11.11° C | 82% | 1023 hPa | 0 mm | - | 168 W/m² | - |
| 1777308852 | 11.11° C | 82% | 1022.9 hPa | 0 mm | - | 183 W/m² | - |
| 1777308547 | 11.11° C | 83% | 1022.7 hPa | 0 mm | - | 165 W/m² | - |
| 1777308243 | 11.11° C | 82% | 1022.9 hPa | 0 mm | - | 151 W/m² | - |
| 1777307938 | 11.11° C | 83% | 1022.9 hPa | 0 mm | - | 137 W/m² | - |
| 1777307637 | 11.11° C | 82% | 1022.9 hPa | 0 mm | - | 126 W/m² | - |
| 1777307333 | 11.11° C | 82% | 1022.9 hPa | 0 mm | - | 102 W/m² | - |
| 1777307030 | 11.11° C | 83% | 1022.8 hPa | 0 mm | - | 100 W/m² | - |
| 1777306728 | 11.11° C | 83% | 1022.9 hPa | 0 mm | - | 98 W/m² | - |
| 1777306425 | 11.11° C | 83% | 1022.7 hPa | 0 mm | - | 89 W/m² | - |
| 1777306119 | 11.11° C | 83% | 1022.6 hPa | 0 mm | - | 81 W/m² | - |
| 1777305815 | 11.11° C | 83% | 1022.6 hPa | 0 mm | - | 72 W/m² | - |
| 1777305511 | 11.11° C | 84% | 1022.6 hPa | 0 mm | - | 62 W/m² | - |
| 1777305207 | 10.56° C | 85% | 1022.6 hPa | 0 mm | - | 61 W/m² | - |
| 1777304902 | 10.56° C | 86% | 1022.6 hPa | 0 mm | - | 65 W/m² | - |
| 1777304599 | 10.56° C | 86% | 1022.6 hPa | 0 mm | - | 71 W/m² | - |
| 1777304296 | 10.56° C | 85% | 1022.4 hPa | 0 mm | - | 55 W/m² | - |
| 1777303993 | 10.56° C | 84% | 1022.5 hPa | 0 mm | - | 36 W/m² | - |
| 1777303689 | 10.56° C | 84% | 1022.5 hPa | 0 mm | - | 39 W/m² | - |
| 1777303387 | 10.56° C | 84% | 1022.4 hPa | 0 mm | - | 44 W/m² | - |
| 1777303084 | 10.56° C | 84% | 1022.3 hPa | 0 mm | - | 48 W/m² | - |
| 1777302783 | 10.56° C | 85% | 1022.2 hPa | 0 mm | - | 45 W/m² | - |
| 1777302480 | 10° C | 86% | 1022.2 hPa | 0 mm | - | 42 W/m² | - |
| 1777302178 | 10° C | 86% | 1022.1 hPa | 0 mm | - | 40 W/m² | - |
* Rain latest hour (hover to see other rain measurements)
** Current wind speed in m/s (hover to see current wind gust speed)